B12FS ZUUU-ZUTF

Flight info

Callsign B12FS
Flight time N/A
Altitude 6900
Route UU461 DCT UU408 DCT UU403 DCT 305903N1041631E 305714N1041915E
Aircraft SR22/L-SDGRY/S

Departure

Time 2026-05-05 06:41
Airport Chengdu Shuangliu International Airport (ZUUU)

Arrival

Time N/A
Airport Chengdu Tianfu International Airport (ZUTF)
Time Latitude Longitude Altitude Speed Heading
2026-05-05 06:40 30.74342 103.91600 4022 ft 177 kts 53°
2026-05-05 06:41 30.75123 103.92720 4016 ft 179 kts 54°
2026-05-05 06:41 30.75903 103.93858 4010 ft 179 kts 54°
2026-05-05 06:41 30.76677 103.94988 4014 ft 179 kts 54°
2026-05-05 06:41 30.77462 103.96137 4014 ft 180 kts 54°
2026-05-05 06:42 30.78243 103.97280 4008 ft 181 kts 54°
2026-05-05 06:42 30.79025 103.98428 4010 ft 181 kts 53°
2026-05-05 06:42 30.79821 103.99590 3998 ft 183 kts 53°
2026-05-05 06:42 30.80609 104.00745 3996 ft 183 kts 54°
2026-05-05 06:43 30.81403 104.01909 4005 ft 182 kts 54°
2026-05-05 06:43 30.82194 104.03069 4006 ft 183 kts 54°
2026-05-05 06:43 30.82982 104.04226 4010 ft 182 kts 54°
2026-05-05 06:43 30.83776 104.05391 3930 ft 187 kts 54°
2026-05-05 06:44 30.84595 104.06593 3850 ft 188 kts 54°
2026-05-05 06:44 30.85412 104.07792 3842 ft 186 kts 54°
2026-05-05 06:44 30.86201 104.08951 3848 ft 184 kts 54°
2026-05-05 06:44 30.87004 104.10133 3845 ft 183 kts 53°
2026-05-05 06:45 30.87784 104.11272 3837 ft 182 kts 53°
2026-05-05 06:45 30.88578 104.12443 3808 ft 183 kts 54°
2026-05-05 06:45 30.89375 104.13613 3809 ft 183 kts 54°
2026-05-05 06:45 30.90159 104.14766 3796 ft 180 kts 54°
2026-05-05 06:46 30.90914 104.15871 3772 ft 170 kts 54°
2026-05-05 06:46 30.91653 104.16962 3605 ft 171 kts 54°
2026-05-05 06:46 30.92394 104.18054 3414 ft 172 kts 54°
2026-05-05 06:46 30.93130 104.19138 3219 ft 166 kts 54°
2026-05-05 06:47 30.93836 104.20177 3022 ft 162 kts 55°
2026-05-05 06:47 30.94531 104.21197 2827 ft 159 kts 55°
2026-05-05 06:47 30.95213 104.22208 2631 ft 158 kts 54°
2026-05-05 06:47 30.95889 104.23200 2442 ft 156 kts 54°
2026-05-05 06:48 30.96528 104.24225 2246 ft 153 kts 59°
2026-05-05 06:48 30.97110 104.25246 2052 ft 151 kts 59°
2026-05-05 06:48 30.97684 104.26249 1896 ft 147 kts 59°
2026-05-05 06:48 30.98020 104.27254 2048 ft 113 kts 84°
2026-05-05 06:49 30.97877 104.28056 2038 ft 98 kts 118°
2026-05-05 06:49 30.97545 104.28716 1991 ft 92 kts 125°
2026-05-05 06:49 30.97176 104.29305 1951 ft 85 kts 128°
2026-05-05 06:49 30.96823 104.29844 1896 ft 80 kts 128°
2026-05-05 06:50 30.96478 104.30349 1822 ft 80 kts 124°
2026-05-05 06:50 30.96174 104.30890 1737 ft 80 kts 127°
2026-05-05 06:50 30.95849 104.31393 1676 ft 77 kts 125°
2026-05-05 06:50 30.95584 104.31920 1711 ft 79 kts 118°
2026-05-05 06:51 30.95315 104.32494 1792 ft 83 kts 121°
2026-05-05 06:51 30.95112 104.33125 1931 ft 76 kts 118°
2026-05-05 06:51 30.94763 104.33581 1981 ft 83 kts 127°
2026-05-05 06:51 30.94568 104.34296 1962 ft 91 kts 120°
2026-05-05 06:52 30.94175 104.34884 1882 ft 108 kts 124°
2026-05-05 06:52 30.94417 104.35719 1783 ft 134 kts 39°
2026-05-05 06:52 30.95316 104.35764 1782 ft 147 kts 321°
2026-05-05 06:52 30.95921 104.34771 1770 ft 154 kts 298°
2026-05-05 06:53 30.96427 104.33659 1891 ft 150 kts 294°
2026-05-05 06:53 30.96261 104.32668 1908 ft 119 kts 205°
2026-05-05 06:53 30.95847 104.32273 1936 ft 89 kts 271°
2026-05-05 06:53 30.95961 104.31591 1855 ft 88 kts 262°
2026-05-05 06:54 30.95599 104.31551 1666 ft 76 kts 107°
2026-05-05 06:54 30.95386 104.32094 1560 ft 70 kts 125°
2026-05-05 06:54 30.95124 104.32518 1542 ft 56 kts 126°
2026-05-05 06:54 30.94914 104.32853 1540 ft 61 kts 123°
2026-05-05 06:55 30.94617 104.33370 1693 ft 84 kts 122°
2026-05-05 06:55 30.94280 104.34010 1860 ft 98 kts 123°
2026-05-05 06:55 30.94109 104.34776 1830 ft 130 kts 60°
2026-05-05 06:55 30.94844 104.35537 1902 ft 145 kts 38°
2026-05-05 06:56 30.95840 104.35447 1907 ft 163 kts 319°
2026-05-05 06:56 30.96557 104.34439 2098 ft 162 kts 306°
2026-05-05 06:56 30.97239 104.33401 2190 ft 151 kts 305°
2026-05-05 06:56 30.97378 104.32323 2054 ft 139 kts 232°
2026-05-05 06:57 30.96804 104.31474 2076 ft 119 kts 208°
2026-05-05 06:57 30.96052 104.31474 1897 ft 111 kts 165°
2026-05-05 06:57 30.95474 104.32005 1660 ft 100 kts 129°
2026-05-05 06:57 30.95095 104.32582 1573 ft 85 kts 129°
2026-05-05 06:58 30.94748 104.33123 1550 ft 80 kts 126°
2026-05-05 06:58 30.94421 104.33687 1754 ft 89 kts 118°
2026-05-05 06:58 30.94185 104.34425 1882 ft 109 kts 92°
2026-05-05 06:58 30.94690 104.35223 1959 ft 132 kts 41°
2026-05-05 06:59 30.95598 104.35284 1928 ft 150 kts 323°
2026-05-05 06:59 30.96302 104.34365 1938 ft 152 kts 306°
2026-05-05 06:59 30.96919 104.33366 1941 ft 148 kts 303°
2026-05-05 06:59 30.97404 104.32362 1888 ft 140 kts 287°
2026-05-05 07:00 30.97202 104.31372 1868 ft 119 kts 232°
2026-05-05 07:00 30.96606 104.31193 1823 ft 94 kts 172°
2026-05-05 07:00 30.96031 104.31091 1782 ft 86 kts 172°
2026-05-05 07:00 30.95664 104.31599 1656 ft 84 kts 119°
2026-05-05 07:01 30.95349 104.32164 1577 ft 81 kts 126°
2026-05-05 07:01 30.95040 104.32658 1541 ft 70 kts 125°
2026-05-05 07:01 30.94799 104.33037 1538 ft 45 kts 120°
2026-05-05 07:01 30.94509 104.33495 1559 ft 90 kts 127°
2026-05-05 07:02 30.94221 104.34036 1806 ft 86 kts 118°
2026-05-05 07:02 30.94106 104.34750 1727 ft 112 kts 54°
2026-05-05 07:02 30.94721 104.35411 1732 ft 127 kts 40°
2026-05-05 07:02 30.95644 104.35473 1711 ft 146 kts 343°
2026-05-05 07:03 30.96456 104.34722 1748 ft 153 kts 310°
2026-05-05 07:03 30.97086 104.33829 1811 ft 134 kts 307°
2026-05-05 07:03 30.97502 104.32919 1800 ft 116 kts 281°
2026-05-05 07:03 30.97369 104.32122 1778 ft 101 kts 238°
2026-05-05 07:04 30.96926 104.31550 1735 ft 87 kts 217°
2026-05-05 07:04 30.96496 104.31164 1736 ft 73 kts 207°
2026-05-05 07:04 30.96055 104.31286 1640 ft 72 kts 145°
2026-05-05 07:04 30.95676 104.31683 1605 ft 74 kts 125°
2026-05-05 07:05 30.95361 104.32169 1562 ft 73 kts 128°
2026-05-05 07:05 30.95065 104.32624 1541 ft 68 kts 127°
2026-05-05 07:05 30.94878 104.32908 1539 ft 23 kts 125°
2026-05-05 07:05 30.94806 104.32919 1539 ft 7 kts 217°
2026-05-05 07:06 30.94770 104.32890 1539 ft 6 kts 203°
2026-05-05 07:06 30.94742 104.32866 1539 ft 2 kts 223°
2026-05-05 07:06 30.94704 104.32860 1539 ft 3 kts 144°
2026-05-05 07:06 30.94680 104.32893 1539 ft 6 kts 127°
2026-05-05 07:07 30.94647 104.32904 1539 ft 3 kts 216°
2026-05-05 07:07 30.94643 104.32901 1539 ft 0 kts 227°
2026-05-05 07:09 30.94642 104.32901 1539 ft 0 kts 227°
2026-05-05 07:19 30.94632 104.32890 1539 ft 4 kts 225°
2026-05-05 07:19 30.94669 104.32907 1539 ft 11 kts 319°
2026-05-05 07:20 30.94749 104.32873 1539 ft 15 kts 40°
2026-05-05 07:20 30.94838 104.32963 1539 ft 18 kts 90°
2026-05-05 07:20 30.94682 104.33222 1537 ft 70 kts 123°
2026-05-05 07:20 30.94325 104.33802 1685 ft 95 kts 124°
2026-05-05 07:21 30.93964 104.34467 1890 ft 102 kts 115°
2026-05-05 07:21 30.94316 104.35169 1991 ft 112 kts 36°
2026-05-05 07:21 30.95029 104.35622 2068 ft 117 kts 26°
2026-05-05 07:21 30.95811 104.35625 2076 ft 123 kts 317°
2026-05-05 07:22 30.96185 104.34812 2252 ft 112 kts 292°
2026-05-05 07:22 30.96470 104.33985 2364 ft 111 kts 287°
2026-05-05 07:22 30.96729 104.33124 2455 ft 113 kts 289°
2026-05-05 07:22 30.97015 104.32288 2522 ft 107 kts 287°
2026-05-05 07:23 30.97302 104.31492 2518 ft 107 kts 296°
2026-05-05 07:23 30.97455 104.30683 2323 ft 108 kts 250°
2026-05-05 07:23 30.96958 104.30042 1934 ft 119 kts 214°
2026-05-05 07:23 30.96337 104.30333 1662 ft 112 kts 116°
2026-05-05 07:24 30.96044 104.31052 1641 ft 83 kts 123°
2026-05-05 07:24 30.95737 104.31570 1601 ft 74 kts 126°
2026-05-05 07:24 30.95426 104.32060 1564 ft 75 kts 126°
2026-05-05 07:24 30.95122 104.32531 1542 ft 70 kts 127°
2026-05-05 07:25 30.94801 104.33041 1539 ft 94 kts 125°
2026-05-05 07:25 30.94479 104.33644 1907 ft 83 kts 118°
2026-05-05 07:25 30.94228 104.34268 2041 ft 97 kts 107°
2026-05-05 07:25 30.94204 104.35111 2179 ft 101 kts 83°
2026-05-05 07:26 30.94478 104.35819 2329 ft 99 kts 58°
2026-05-05 07:26 30.95068 104.36478 1873 ft 137 kts 18°
2026-05-05 07:26 30.95890 104.35974 1802 ft 135 kts 312°
2026-05-05 07:26 30.96516 104.35188 1859 ft 131 kts 313°
2026-05-05 07:27 30.97103 104.34393 1911 ft 129 kts 308°
2026-05-05 07:27 30.97633 104.33569 2010 ft 124 kts 304°
2026-05-05 07:27 30.98139 104.32762 1892 ft 124 kts 303°
2026-05-05 07:27 30.98037 104.31943 1813 ft 98 kts 233°
2026-05-05 07:28 30.97647 104.31405 1738 ft 83 kts 219°
2026-05-05 07:28 30.97147 104.31092 1718 ft 82 kts 164°
2026-05-05 07:28 30.96607 104.31297 1751 ft 80 kts 180°
2026-05-05 07:28 30.96048 104.31370 1756 ft 83 kts 142°
2026-05-05 07:29 30.95571 104.31844 1641 ft 93 kts 131°
2026-05-05 07:29 30.95188 104.32426 1564 ft 88 kts 127°
2026-05-05 07:29 30.94828 104.32997 1544 ft 82 kts 127°
2026-05-05 07:29 30.94453 104.33619 1555 ft 110 kts 124°
2026-05-05 07:30 30.94093 104.34256 1925 ft 93 kts 121°
2026-05-05 07:30 30.94524 104.35976 1797 ft 156 kts 45°
2026-05-05 07:30 30.95388 104.36767 1944 ft 152 kts 28°
2026-05-05 07:31 30.96229 104.36172 1938 ft 148 kts 303°
2026-05-05 07:31 30.96734 104.35191 2085 ft 132 kts 297°
2026-05-05 07:31 30.97141 104.34277 2191 ft 125 kts 294°
2026-05-05 07:31 30.97482 104.33327 2207 ft 128 kts 289°
2026-05-05 07:32 30.97728 104.32403 2078 ft 112 kts 262°
2026-05-05 07:32 30.97407 104.31655 1984 ft 100 kts 236°
2026-05-05 07:32 30.97055 104.30959 1780 ft 105 kts 236°
2026-05-05 07:32 30.96540 104.30883 1680 ft 86 kts 146°
2026-05-05 07:33 30.96051 104.31050 1645 ft 76 kts 118°
2026-05-05 07:33 30.95740 104.31570 1594 ft 79 kts 126°
2026-05-05 07:33 30.95407 104.32095 1561 ft 82 kts 126°
2026-05-05 07:33 30.95066 104.32622 1549 ft 80 kts 127°
2026-05-05 07:34 30.94751 104.33129 1538 ft 77 kts 127°
2026-05-05 07:34 30.94347 104.33747 1562 ft 107 kts 126°
2026-05-05 07:34 30.93996 104.34426 1876 ft 103 kts 118°
2026-05-05 07:34 30.94235 104.35179 1926 ft 125 kts 36°
2026-05-05 07:35 30.94954 104.35807 1987 ft 128 kts 40°
2026-05-05 07:35 30.95669 104.36398 1917 ft 122 kts 27°
2026-05-05 07:35 30.96392 104.35986 1776 ft 128 kts 308°
2026-05-05 07:35 30.96884 104.35169 1805 ft 112 kts 297°
2026-05-05 07:36 30.97242 104.34367 1715 ft 110 kts 294°
2026-05-05 07:36 30.97531 104.33583 1732 ft 100 kts 289°
2026-05-05 07:36 30.97741 104.32826 1753 ft 95 kts 278°
2026-05-05 07:36 30.97447 104.32208 1691 ft 92 kts 222°
2026-05-05 07:37 30.96975 104.31724 1735 ft 82 kts 211°
2026-05-05 07:37 30.96451 104.31342 1664 ft 89 kts 204°
2026-05-05 07:37 30.95953 104.31398 1593 ft 86 kts 122°
2026-05-05 07:37 30.95544 104.31912 1563 ft 90 kts 130°
2026-05-05 07:38 30.95153 104.32488 1551 ft 93 kts 126°
2026-05-05 07:38 30.94776 104.33077 1542 ft 78 kts 128°
2026-05-05 07:38 30.94518 104.33468 1535 ft 46 kts 123°
2026-05-05 07:38 30.94358 104.33723 1534 ft 31 kts 127°
2026-05-05 07:39 30.94257 104.33823 1533 ft 10 kts 224°
2026-05-05 07:39 30.94243 104.33800 1533 ft 0 kts 231°